Time,TemperatureF,DewpointF,PressureIn,WindDirection,WindDirectionDegrees,WindSpeedMPH,WindSpeedGustMPH,Humidity,HourlyPrecipIn,Conditions,Clouds,dailyrainin,SoftwareType,DateUTC
2013-02-27 00:00:00,35.8,34.5,29.92,NE,43,3.0,13.0,95,0.07,,,0.18,meteohub,2013-02-27 05:00:00,
2013-02-27 00:01:00,35.8,34.5,29.92,WSW,248,3.0,13.0,95,0.06,,,0.18,meteohub,2013-02-27 05:01:00,
2013-02-27 00:06:00,35.8,34.5,29.92,ENE,76,10.0,15.0,95,0.06,,,0.00,meteohub,2013-02-27 05:06:00,
2013-02-27 00:11:00,35.8,34.5,29.91,NNE,20,5.0,15.0,95,0.06,,,0.01,meteohub,2013-02-27 05:11:00,
2013-02-27 00:16:00,35.6,34.3,29.91,East,83,5.0,19.0,95,0.06,,,0.03,meteohub,2013-02-27 05:16:00,
2013-02-27 00:21:00,35.6,34.3,29.91,NE,44,3.0,19.0,95,0.06,,,0.04,meteohub,2013-02-27 05:21:00,
2013-02-27 00:26:00,35.8,34.5,29.89,ENE,63,2.0,19.0,95,0.08,,,0.06,meteohub,2013-02-27 05:26:00,
2013-02-27 00:31:00,35.8,34.5,29.89,East,86,2.0,15.0,95,0.08,,,0.07,meteohub,2013-02-27 05:31:00,
2013-02-27 00:36:00,35.8,34.5,29.89,NW,314,8.0,15.0,95,0.08,,,0.07,meteohub,2013-02-27 05:36:00,
2013-02-27 00:41:00,35.8,34.5,29.90,ESE,107,0.0,15.0,95,0.08,,,0.07,meteohub,2013-02-27 05:41:00,
2013-02-27 00:46:00,35.8,34.5,29.91,NE,43,0.0,15.0,95,0.08,,,0.08,meteohub,2013-02-27 05:46:00,
2013-02-27 00:51:00,36.0,34.7,29.91,ESE,103,2.0,15.0,95,0.09,,,0.09,meteohub,2013-02-27 05:51:00,
2013-02-27 00:56:00,36.0,34.7,29.91,NW,323,4.0,14.0,95,0.10,,,0.10,meteohub,2013-02-27 05:56:00,
2013-02-27 01:01:00,36.0,34.7,29.91,ENE,59,4.0,15.0,95,0.12,,,0.12,meteohub,2013-02-27 06:01:00,
2013-02-27 01:06:00,36.1,34.9,29.90,East,82,5.0,15.0,95,0.12,,,0.13,meteohub,2013-02-27 06:06:00,
2013-02-27 01:11:00,36.1,34.9,29.90,NNE,15,3.0,15.0,95,0.12,,,0.14,meteohub,2013-02-27 06:11:00,
2013-02-27 01:16:00,36.1,34.9,29.89,WSW,240,2.0,14.0,95,0.13,,,0.16,meteohub,2013-02-27 06:16:00,
2013-02-27 01:21:00,36.3,35.2,29.89,ESE,105,3.0,14.0,96,0.12,,,0.17,meteohub,2013-02-27 06:21:00,
2013-02-27 01:26:00,36.3,35.2,29.89,West,259,5.0,14.0,96,0.14,,,0.20,meteohub,2013-02-27 06:26:00,
2013-02-27 01:31:00,36.3,35.2,29.89,West,280,0.0,14.0,96,0.14,,,0.21,meteohub,2013-02-27 06:31:00,
2013-02-27 01:36:00,36.3,35.2,29.88,ENE,72,3.0,14.0,96,0.15,,,0.22,meteohub,2013-02-27 06:36:00,
2013-02-27 01:41:00,36.3,35.2,29.87,ENE,75,4.0,14.0,96,0.15,,,0.23,meteohub,2013-02-27 06:41:00,
2013-02-27 01:46:00,36.5,35.4,29.86,SSW,207,5.0,13.0,96,0.16,,,0.24,meteohub,2013-02-27 06:46:00,
2013-02-27 01:51:00,36.5,35.4,29.86,NE,53,3.0,13.0,96,0.15,,,0.24,meteohub,2013-02-27 06:51:00,
2013-02-27 01:56:00,36.7,35.6,29.85,ENE,57,3.0,16.0,96,0.13,,,0.24,meteohub,2013-02-27 06:56:00,
2013-02-27 02:01:00,36.9,35.8,29.85,ENE,57,2.0,18.0,96,0.12,,,0.24,meteohub,2013-02-27 07:01:00,
2013-02-27 02:06:00,36.9,35.8,29.84,East,86,1.0,18.0,96,0.12,,,0.25,meteohub,2013-02-27 07:06:00,
2013-02-27 02:11:00,36.9,35.8,29.85,ENE,70,2.0,18.0,96,0.12,,,0.26,meteohub,2013-02-27 07:11:00,
2013-02-27 02:16:00,36.9,35.8,29.84,East,91,6.0,11.0,96,0.10,,,0.26,meteohub,2013-02-27 07:16:00,
2013-02-27 02:21:00,37.0,36.0,29.84,WNW,302,4.0,12.0,96,0.08,,,0.27,meteohub,2013-02-27 07:21:00,
2013-02-27 02:26:00,37.0,36.0,29.83,West,266,4.0,12.0,96,0.07,,,0.27,meteohub,2013-02-27 07:26:00,
2013-02-27 02:31:00,37.2,36.1,29.83,SW,235,3.0,12.0,96,0.06,,,0.28,meteohub,2013-02-27 07:31:00,
2013-02-27 02:36:00,37.2,36.1,29.82,NNW,344,0.0,14.0,96,0.07,,,0.29,meteohub,2013-02-27 07:36:00,
2013-02-27 02:41:00,37.2,36.1,29.81,ENE,74,3.0,16.0,96,0.06,,,0.29,meteohub,2013-02-27 07:41:00,
2013-02-27 02:46:00,37.2,36.1,29.81,ENE,61,3.0,16.0,96,0.06,,,0.30,meteohub,2013-02-27 07:46:00,
2013-02-27 02:51:00,37.4,36.3,29.80,East,80,1.0,16.0,96,0.06,,,0.30,meteohub,2013-02-27 07:51:00,
2013-02-27 02:56:00,37.6,36.5,29.80,WNW,283,2.0,12.0,96,0.07,,,0.31,meteohub,2013-02-27 07:56:00,
2013-02-27 03:01:00,37.6,36.5,29.79,NE,36,2.0,12.0,96,0.07,,,0.31,meteohub,2013-02-27 08:01:00,
2013-02-27 03:06:00,37.6,36.5,29.79,ENE,74,1.0,12.0,96,0.06,,,0.31,meteohub,2013-02-27 08:06:00,
2013-02-27 03:11:00,37.8,36.7,29.78,ENE,57,2.0,16.0,96,0.05,,,0.31,meteohub,2013-02-27 08:11:00,
2013-02-27 03:16:00,37.8,36.7,29.78,ENE,77,3.0,16.0,96,0.05,,,0.31,meteohub,2013-02-27 08:16:00,
2013-02-27 03:22:00,37.8,36.7,29.77,ENE,72,2.0,16.0,96,0.05,,,0.32,meteohub,2013-02-27 08:22:00,
2013-02-27 03:27:00,37.9,36.9,29.77,NE,50,7.0,12.0,96,0.04,,,0.32,meteohub,2013-02-27 08:27:00,
2013-02-27 03:32:00,37.9,36.9,29.77,NE,46,6.0,16.0,96,0.04,,,0.32,meteohub,2013-02-27 08:32:00,
2013-02-27 03:37:00,38.1,37.0,29.76,ESE,107,2.0,16.0,96,0.03,,,0.32,meteohub,2013-02-27 08:37:00,
2013-02-27 03:42:00,38.1,37.0,29.76,West,262,1.0,15.0,96,0.03,,,0.33,meteohub,2013-02-27 08:42:00,
2013-02-27 03:47:00,38.3,37.2,29.76,SW,228,3.0,15.0,96,0.03,,,0.33,meteohub,2013-02-27 08:47:00,
2013-02-27 03:52:00,38.5,37.4,29.76,NE,51,2.0,12.0,96,0.02,,,0.33,meteohub,2013-02-27 08:52:00,
2013-02-27 03:57:00,38.7,37.6,29.75,ENE,68,6.0,15.0,96,0.03,,,0.34,meteohub,2013-02-27 08:57:00,
2013-02-27 04:02:00,38.8,37.8,29.75,WNW,289,3.0,15.0,96,0.03,,,0.34,meteohub,2013-02-27 09:02:00,
2013-02-27 04:07:00,38.8,37.8,29.75,East,81,4.0,15.0,96,0.04,,,0.35,meteohub,2013-02-27 09:07:00,
2013-02-27 04:12:00,39.0,37.9,29.75,ENE,75,1.0,12.0,96,0.05,,,0.36,meteohub,2013-02-27 09:12:00,
2013-02-27 04:17:00,39.2,38.1,29.75,East,84,2.0,11.0,96,0.06,,,0.37,meteohub,2013-02-27 09:17:00,
2013-02-27 04:22:00,39.4,38.3,29.75,East,83,11.0,21.0,96,0.06,,,0.38,meteohub,2013-02-27 09:22:00,
2013-02-27 04:27:00,39.6,38.5,29.73,ENE,63,6.0,21.0,96,0.07,,,0.39,meteohub,2013-02-27 09:27:00,
2013-02-27 04:32:00,39.6,38.5,29.73,East,91,10.0,21.0,96,0.08,,,0.40,meteohub,2013-02-27 09:32:00,
2013-02-27 04:37:00,39.7,38.7,29.73,East,82,3.0,13.0,96,0.08,,,0.40,meteohub,2013-02-27 09:37:00,
2013-02-27 04:42:00,39.9,38.8,29.73,North,8,2.0,13.0,96,0.08,,,0.41,meteohub,2013-02-27 09:42:00,
2013-02-27 04:47:00,39.9,38.8,29.73,NE,39,0.0,13.0,96,0.08,,,0.41,meteohub,2013-02-27 09:47:00,
2013-02-27 04:52:00,40.1,39.0,29.73,SE,141,1.0,21.0,96,0.09,,,0.42,meteohub,2013-02-27 09:52:00,
2013-02-27 04:57:00,40.3,39.2,29.72,East,81,4.0,21.0,96,0.09,,,0.43,meteohub,2013-02-27 09:57:00,
2013-02-27 05:02:00,40.3,39.2,29.72,ENE,73,3.0,13.0,96,0.09,,,0.43,meteohub,2013-02-27 10:02:00,
2013-02-27 05:07:00,40.3,39.2,29.71,WNW,302,2.0,13.0,96,0.08,,,0.44,meteohub,2013-02-27 10:07:00,
2013-02-27 05:12:00,40.5,39.7,29.70,NNE,26,3.0,16.0,97,0.08,,,0.45,meteohub,2013-02-27 10:12:00,
2013-02-27 05:17:00,40.6,39.9,29.70,SSE,148,2.0,16.0,97,0.09,,,0.45,meteohub,2013-02-27 10:17:00,
2013-02-27 05:22:00,40.8,40.1,29.70,SW,235,2.0,16.0,97,0.08,,,0.46,meteohub,2013-02-27 10:22:00,
2013-02-27 05:27:00,41.2,40.5,29.69,NNW,331,2.0,16.0,97,0.08,,,0.47,meteohub,2013-02-27 10:27:00,
2013-02-27 05:32:00,41.4,40.6,29.69,WSW,243,2.0,18.0,97,0.07,,,0.47,meteohub,2013-02-27 10:32:00,
2013-02-27 05:37:00,41.7,41.0,29.69,NNW,338,1.0,18.0,97,0.06,,,0.47,meteohub,2013-02-27 10:37:00,
2013-02-27 05:42:00,42.1,41.4,29.68,ENE,75,4.0,18.0,97,0.07,,,0.48,meteohub,2013-02-27 10:42:00,
2013-02-27 05:47:00,42.1,41.4,29.68,NE,55,0.0,15.0,97,0.06,,,0.48,meteohub,2013-02-27 10:47:00,
2013-02-27 05:52:00,42.3,41.5,29.68,ENE,70,6.0,15.0,97,0.07,,,0.49,meteohub,2013-02-27 10:52:00,
2013-02-27 05:57:00,42.3,41.2,29.67,East,83,5.0,18.0,96,0.08,,,0.51,meteohub,2013-02-27 10:57:00,
2013-02-27 06:02:00,42.3,41.2,29.67,WSW,250,3.0,18.0,96,0.07,,,0.51,meteohub,2013-02-27 11:02:00,
2013-02-27 06:07:00,42.3,41.2,29.67,NW,311,7.0,19.0,96,0.08,,,0.52,meteohub,2013-02-27 11:07:00,
2013-02-27 06:12:00,42.4,41.4,29.67,NNE,30,5.0,19.0,96,0.09,,,0.54,meteohub,2013-02-27 11:12:00,
2013-02-27 06:17:00,42.4,41.4,29.66,NNW,340,6.0,16.0,96,0.08,,,0.54,meteohub,2013-02-27 11:17:00,
2013-02-27 06:22:00,42.4,41.4,29.66,ENE,73,3.0,20.0,96,0.10,,,0.56,meteohub,2013-02-27 11:22:00,
2013-02-27 06:27:00,42.6,41.5,29.65,West,278,3.0,20.0,96,0.11,,,0.58,meteohub,2013-02-27 11:27:00,
2013-02-27 06:32:00,42.6,41.5,29.65,West,259,0.0,20.0,96,0.11,,,0.58,meteohub,2013-02-27 11:32:00,
2013-02-27 06:37:00,42.6,41.5,29.66,SW,221,3.0,16.0,96,0.13,,,0.60,meteohub,2013-02-27 11:37:00,
2013-02-27 06:42:00,42.6,41.9,29.66,NE,53,3.0,16.0,97,0.13,,,0.61,meteohub,2013-02-27 11:42:00,
2013-02-27 06:47:00,42.8,41.7,29.65,NW,316,6.0,16.0,96,0.14,,,0.62,meteohub,2013-02-27 11:47:00,
2013-02-27 06:52:00,42.8,42.1,29.65,NNE,13,3.0,16.0,97,0.13,,,0.63,meteohub,2013-02-27 11:52:00,
2013-02-27 06:57:00,43.0,42.3,29.64,WSW,255,6.0,17.0,97,0.13,,,0.64,meteohub,2013-02-27 11:57:00,
2013-02-27 07:02:00,43.0,42.3,29.64,East,97,14.0,17.0,97,0.12,,,0.64,meteohub,2013-02-27 12:02:00,
2013-02-27 07:07:00,43.0,41.9,29.65,ESE,103,7.0,17.0,96,0.11,,,0.64,meteohub,2013-02-27 12:07:00,
2013-02-27 07:12:00,43.0,42.3,29.64,ENE,70,3.0,15.0,97,0.11,,,0.65,meteohub,2013-02-27 12:12:00,
2013-02-27 07:17:00,43.2,42.4,29.64,NNE,22,2.0,22.0,97,0.10,,,0.65,meteohub,2013-02-27 12:17:00,
2013-02-27 07:22:00,43.2,42.4,29.64,East,94,10.0,22.0,97,0.10,,,0.66,meteohub,2013-02-27 12:22:00,
2013-02-27 07:27:00,43.3,42.6,29.64,ENE,70,1.0,22.0,97,0.09,,,0.67,meteohub,2013-02-27 12:27:00,
2013-02-27 07:32:00,43.5,42.8,29.64,NNE,13,2.0,18.0,97,0.08,,,0.67,meteohub,2013-02-27 12:32:00,
2013-02-27 07:37:00,43.5,42.8,29.63,East,83,2.0,18.0,97,0.08,,,0.68,meteohub,2013-02-27 12:37:00,
2013-02-27 07:42:00,43.7,43.0,29.62,ENE,61,10.0,16.0,97,0.07,,,0.68,meteohub,2013-02-27 12:42:00,
2013-02-27 07:47:00,43.9,43.2,29.63,North,358,4.0,17.0,97,0.07,,,0.69,meteohub,2013-02-27 12:47:00,
2013-02-27 07:52:00,43.9,43.2,29.63,ENE,68,5.0,24.0,97,0.06,,,0.69,meteohub,2013-02-27 12:52:00,
2013-02-27 07:57:00,44.1,43.3,29.62,East,85,4.0,24.0,97,0.06,,,0.70,meteohub,2013-02-27 12:57:00,
2013-02-27 08:02:00,43.9,43.2,29.62,ENE,72,3.0,24.0,97,0.06,,,0.70,meteohub,2013-02-27 13:02:00,
2013-02-27 08:07:00,43.9,43.2,29.62,NNW,327,9.0,18.0,97,0.06,,,0.71,meteohub,2013-02-27 13:07:00,
2013-02-27 08:12:00,44.1,43.3,29.62,ESE,117,4.0,18.0,97,0.08,,,0.73,meteohub,2013-02-27 13:12:00,
2013-02-27 08:17:00,44.1,43.3,29.61,East,84,7.0,18.0,97,0.07,,,0.73,meteohub,2013-02-27 13:17:00,
2013-02-27 08:23:00,44.1,43.3,29.60,WSW,251,2.0,23.0,97,0.08,,,0.74,meteohub,2013-02-27 13:23:00,
2013-02-27 08:27:00,44.1,43.3,29.61,East,85,5.0,23.0,97,0.07,,,0.74,meteohub,2013-02-27 13:27:00,
2013-02-27 08:33:00,44.1,43.3,29.60,West,270,3.0,21.0,97,0.07,,,0.74,meteohub,2013-02-27 13:33:00,
2013-02-27 08:38:00,44.2,43.2,29.60,ENE,67,5.0,17.0,96,0.06,,,0.74,meteohub,2013-02-27 13:38:00,
2013-02-27 08:43:00,44.2,43.2,29.60,NE,51,6.0,21.0,96,0.07,,,0.75,meteohub,2013-02-27 13:43:00,
2013-02-27 08:48:00,44.2,43.2,29.58,East,89,8.0,21.0,96,0.08,,,0.77,meteohub,2013-02-27 13:48:00,
2013-02-27 08:53:00,44.2,43.2,29.59,East,92,3.0,21.0,96,0.08,,,0.77,meteohub,2013-02-27 13:53:00,
2013-02-27 08:58:00,44.2,43.2,29.59,ESE,119,5.0,20.0,96,0.08,,,0.78,meteohub,2013-02-27 13:58:00,
2013-02-27 09:03:00,44.2,43.2,29.58,ESE,103,2.0,18.0,96,0.07,,,0.78,meteohub,2013-02-27 14:03:00,
2013-02-27 09:08:00,44.2,43.5,29.58,ENE,72,7.0,14.0,97,0.07,,,0.79,meteohub,2013-02-27 14:08:00,
2013-02-27 09:13:00,44.2,43.2,29.59,ESE,114,13.0,14.0,96,0.06,,,0.79,meteohub,2013-02-27 14:13:00,
2013-02-27 09:18:00,44.2,43.2,29.59,East,79,5.0,16.0,96,0.06,,,0.79,meteohub,2013-02-27 14:18:00,
2013-02-27 09:23:00,44.2,43.2,29.58,WNW,302,1.0,19.0,96,0.05,,,0.79,meteohub,2013-02-27 14:23:00,
2013-02-27 09:28:00,44.1,43.0,29.59,SSE,152,16.0,20.0,96,0.05,,,0.79,meteohub,2013-02-27 14:28:00,
2013-02-27 09:33:00,44.1,43.0,29.59,ENE,71,6.0,20.0,96,0.06,,,0.80,meteohub,2013-02-27 14:33:00,
2013-02-27 09:38:00,44.1,43.0,29.59,East,79,10.0,22.0,96,0.07,,,0.81,meteohub,2013-02-27 14:38:00,
2013-02-27 09:43:00,43.9,42.8,29.58,NE,56,9.0,22.0,96,0.07,,,0.82,meteohub,2013-02-27 14:43:00,
2013-02-27 09:48:00,43.9,42.8,29.57,East,89,3.0,20.0,96,0.07,,,0.84,meteohub,2013-02-27 14:48:00,
2013-02-27 09:53:00,43.9,42.8,29.57,ENE,68,5.0,20.0,96,0.08,,,0.85,meteohub,2013-02-27 14:53:00,
2013-02-27 09:58:00,43.7,42.6,29.57,East,94,9.0,20.0,96,0.07,,,0.85,meteohub,2013-02-27 14:58:00,
2013-02-27 10:03:00,43.7,42.6,29.58,ENE,63,5.0,21.0,96,0.08,,,0.86,meteohub,2013-02-27 15:03:00,
2013-02-27 10:08:00,43.5,42.4,29.58,ENE,58,4.0,21.0,96,0.10,,,0.89,meteohub,2013-02-27 15:08:00,
2013-02-27 10:13:00,43.5,42.4,29.58,ENE,70,8.0,19.0,96,0.10,,,0.89,meteohub,2013-02-27 15:13:00,
2013-02-27 10:18:00,43.5,42.4,29.58,SSE,150,3.0,18.0,96,0.11,,,0.90,meteohub,2013-02-27 15:18:00,
2013-02-27 10:23:00,43.5,42.4,29.57,NNW,345,2.0,18.0,96,0.12,,,0.91,meteohub,2013-02-27 15:23:00,
2013-02-27 10:28:00,43.5,42.8,29.57,West,274,3.0,15.0,97,0.11,,,0.91,meteohub,2013-02-27 15:28:00,
2013-02-27 10:33:00,43.5,42.8,29.57,NE,56,5.0,15.0,97,0.11,,,0.91,meteohub,2013-02-27 15:33:00,
2013-02-27 10:38:00,43.3,42.3,29.57,North,349,7.0,22.0,96,0.10,,,0.92,meteohub,2013-02-27 15:38:00,
2013-02-27 10:43:00,43.3,42.3,29.56,NNW,333,0.0,22.0,96,0.09,,,0.92,meteohub,2013-02-27 15:43:00,
2013-02-27 10:48:00,43.3,42.6,29.55,NNW,338,3.0,21.0,97,0.08,,,0.92,meteohub,2013-02-27 15:48:00,
2013-02-27 10:53:00,43.3,42.6,29.55,ENE,63,3.0,18.0,97,0.08,,,0.93,meteohub,2013-02-27 15:53:00,
2013-02-27 10:58:00,43.3,42.6,29.54,ENE,61,6.0,26.0,97,0.08,,,0.93,meteohub,2013-02-27 15:58:00,
2013-02-27 11:04:00,43.3,42.6,29.55,ESE,105,1.0,26.0,97,0.06,,,0.93,meteohub,2013-02-27 16:04:00,
2013-02-27 11:09:00,43.2,42.4,29.54,East,79,1.0,26.0,97,0.05,,,0.94,meteohub,2013-02-27 16:09:00,
2013-02-27 11:14:00,43.2,42.4,29.55,NE,43,1.0,20.0,97,0.04,,,0.94,meteohub,2013-02-27 16:14:00,
2013-02-27 11:19:00,43.2,42.4,29.54,NNW,333,1.0,20.0,97,0.04,,,0.94,meteohub,2013-02-27 16:19:00,
2013-02-27 11:24:00,43.2,42.4,29.55,East,89,1.0,20.0,97,0.04,,,0.95,meteohub,2013-02-27 16:24:00,
2013-02-27 11:29:00,43.2,42.4,29.55,ESE,112,2.0,20.0,97,0.06,,,0.97,meteohub,2013-02-27 16:29:00,
2013-02-27 11:34:00,43.2,42.4,29.55,South,175,1.0,20.0,97,0.07,,,0.98,meteohub,2013-02-27 16:34:00,
2013-02-27 11:39:00,43.2,42.4,29.54,East,99,4.0,13.0,97,0.06,,,0.98,meteohub,2013-02-27 16:39:00,
2013-02-27 11:44:00,43.2,42.4,29.55,East,82,3.0,16.0,97,0.06,,,0.98,meteohub,2013-02-27 16:44:00,
2013-02-27 11:49:00,43.3,42.6,29.54,East,82,2.0,21.0,97,0.06,,,0.99,meteohub,2013-02-27 16:49:00,
2013-02-27 11:54:00,43.3,42.6,29.53,NNE,30,7.0,21.0,97,0.06,,,0.99,meteohub,2013-02-27 16:54:00,
2013-02-27 11:59:00,43.3,42.6,29.53,ESE,115,6.0,21.0,97,0.07,,,1.00,meteohub,2013-02-27 16:59:00,
2013-02-27 12:04:00,43.3,42.6,29.52,East,91,2.0,18.0,97,0.06,,,1.00,meteohub,2013-02-27 17:04:00,
2013-02-27 12:09:00,43.2,42.4,29.52,NW,304,0.0,18.0,97,0.06,,,1.00,meteohub,2013-02-27 17:09:00,
2013-02-27 12:14:00,43.3,42.6,29.52,North,5,2.0,24.0,97,0.06,,,1.00,meteohub,2013-02-27 17:14:00,
2013-02-27 12:19:00,43.2,42.4,29.52,ENE,68,4.0,24.0,97,0.05,,,1.00,meteohub,2013-02-27 17:19:00,
2013-02-27 12:24:00,43.2,42.4,29.51,East,94,8.0,24.0,97,0.05,,,1.01,meteohub,2013-02-27 17:24:00,
2013-02-27 12:29:00,43.2,42.4,29.51,East,86,4.0,11.0,97,0.04,,,1.01,meteohub,2013-02-27 17:29:00,
2013-02-27 12:34:00,43.2,42.4,29.52,East,94,5.0,11.0,97,0.03,,,1.01,meteohub,2013-02-27 17:34:00,
2013-02-27 12:39:00,43.2,42.4,29.52,East,85,6.0,13.0,97,0.03,,,1.01,meteohub,2013-02-27 17:39:00,
2013-02-27 12:44:00,43.2,42.4,29.51,East,96,7.0,15.0,97,0.03,,,1.01,meteohub,2013-02-27 17:44:00,
2013-02-27 12:49:00,43.0,42.3,29.50,East,84,1.0,15.0,97,0.02,,,1.01,meteohub,2013-02-27 17:49:00,
2013-02-27 12:54:00,43.2,42.4,29.50,NNW,329,3.0,16.0,97,0.01,,,1.01,meteohub,2013-02-27 17:54:00,
2013-02-27 12:59:00,43.0,42.3,29.49,NNE,18,3.0,16.0,97,0.01,,,1.01,meteohub,2013-02-27 17:59:00,
2013-02-27 13:04:00,43.2,42.4,29.49,NE,47,3.0,10.0,97,0.01,,,1.01,meteohub,2013-02-27 18:04:00,
2013-02-27 13:09:00,43.2,42.4,29.48,East,89,6.0,13.0,97,0.01,,,1.01,meteohub,2013-02-27 18:09:00,
2013-02-27 13:14:00,43.2,42.4,29.48,North,4,3.0,13.0,97,0.01,,,1.01,meteohub,2013-02-27 18:14:00,
2013-02-27 13:19:00,43.2,42.4,29.49,ENE,63,7.0,15.0,97,0.01,,,1.01,meteohub,2013-02-27 18:19:00,
2013-02-27 13:24:00,43.3,42.6,29.49,East,84,3.0,15.0,97,0.00,,,1.01,meteohub,2013-02-27 18:24:00,
2013-02-27 13:29:00,43.2,42.4,29.49,NE,44,3.0,15.0,97,0.00,,,1.01,meteohub,2013-02-27 18:29:00,
2013-02-27 13:34:00,43.2,42.4,29.49,NE,46,1.0,14.0,97,0.00,,,1.01,meteohub,2013-02-27 18:34:00,
2013-02-27 13:39:00,43.3,42.6,29.50,ENE,75,1.0,14.0,97,0.00,,,1.01,meteohub,2013-02-27 18:39:00,
2013-02-27 13:44:00,43.3,42.6,29.50,NE,42,1.0,14.0,97,0.00,,,1.01,meteohub,2013-02-27 18:44:00,
2013-02-27 13:49:00,43.3,42.6,29.50,South,191,1.0,9.0,97,0.00,,,1.01,meteohub,2013-02-27 18:49:00,
2013-02-27 13:54:00,43.3,42.6,29.50,ESE,103,0.0,9.0,97,0.00,,,1.01,meteohub,2013-02-27 18:54:00,
2013-02-27 13:59:00,43.2,42.4,29.50,WSW,248,0.0,9.0,97,0.00,,,1.01,meteohub,2013-02-27 18:59:00,
2013-02-27 14:04:00,43.2,42.4,29.50,East,90,2.0,7.0,97,0.00,,,1.01,meteohub,2013-02-27 19:04:00,
2013-02-27 14:09:00,43.2,42.4,29.50,East,89,0.0,7.0,97,0.00,,,1.01,meteohub,2013-02-27 19:09:00,
2013-02-27 14:14:00,43.0,42.3,29.50,East,80,0.0,7.0,97,0.00,,,1.01,meteohub,2013-02-27 19:14:00,
2013-02-27 14:19:00,43.0,42.3,29.50,NW,326,0.0,6.0,97,0.00,,,1.01,meteohub,2013-02-27 19:19:00,
2013-02-27 14:24:00,43.0,42.3,29.50,WNW,296,1.0,5.0,97,0.00,,,1.01,meteohub,2013-02-27 19:24:00,
2013-02-27 14:30:00,43.0,42.3,29.50,WSW,255,0.0,7.0,97,0.00,,,1.01,meteohub,2013-02-27 19:30:00,
2013-02-27 14:35:00,43.0,42.3,29.50,East,96,0.0,7.0,97,0.00,,,1.01,meteohub,2013-02-27 19:35:00,
2013-02-27 14:40:00,43.2,42.4,29.50,ENE,67,2.0,8.0,97,0.00,,,1.01,meteohub,2013-02-27 19:40:00,
2013-02-27 14:45:00,43.2,42.4,29.50,East,80,0.0,8.0,97,0.00,,,1.01,meteohub,2013-02-27 19:45:00,
2013-02-27 14:50:00,43.2,42.4,29.51,ENE,72,0.0,8.0,97,0.00,,,1.01,meteohub,2013-02-27 19:50:00,
2013-02-27 14:55:00,43.2,42.4,29.51,ENE,70,0.0,6.0,97,0.01,,,1.02,meteohub,2013-02-27 19:55:00,
2013-02-27 15:00:00,43.2,42.4,29.51,East,88,1.0,6.0,97,0.01,,,1.02,meteohub,2013-02-27 20:00:00,
2013-02-27 15:05:00,43.2,42.4,29.51,East,90,6.0,6.0,97,0.01,,,1.02,meteohub,2013-02-27 20:05:00,
2013-02-27 15:10:00,43.2,42.4,29.51,ENE,77,0.0,4.0,97,0.01,,,1.02,meteohub,2013-02-27 20:10:00,
2013-02-27 15:15:00,43.2,42.4,29.51,East,84,2.0,6.0,97,0.01,,,1.02,meteohub,2013-02-27 20:15:00,
2013-02-27 15:20:00,43.2,42.6,29.51,ESE,112,4.0,6.0,98,0.01,,,1.02,meteohub,2013-02-27 20:20:00,
2013-02-27 15:25:00,43.2,42.6,29.51,East,84,1.0,5.0,98,0.01,,,1.02,meteohub,2013-02-27 20:25:00,
2013-02-27 15:30:00,43.2,42.4,29.51,NNW,333,1.0,5.0,97,0.01,,,1.02,meteohub,2013-02-27 20:30:00,
2013-02-27 15:35:00,43.2,42.4,29.52,East,86,2.0,4.0,97,0.01,,,1.02,meteohub,2013-02-27 20:35:00,
2013-02-27 15:40:00,43.2,42.6,29.52,East,82,1.0,4.0,98,0.01,,,1.02,meteohub,2013-02-27 20:40:00,
2013-02-27 15:45:00,43.2,42.6,29.52,East,85,0.0,4.0,98,0.01,,,1.02,meteohub,2013-02-27 20:45:00,
2013-02-27 15:50:00,43.2,42.6,29.52,East,82,3.0,4.0,98,0.01,,,1.02,meteohub,2013-02-27 20:50:00,
2013-02-27 15:55:00,43.2,42.6,29.52,East,91,0.0,3.0,98,0.00,,,1.02,meteohub,2013-02-27 20:55:00,
2013-02-27 16:00:00,43.3,42.8,29.52,East,93,0.0,4.0,98,0.00,,,1.02,meteohub,2013-02-27 21:00:00,
2013-02-27 16:05:00,43.2,42.6,29.52,WSW,243,0.0,2.0,98,0.00,,,1.02,meteohub,2013-02-27 21:05:00,
2013-02-27 16:10:00,43.2,42.6,29.53,WSW,243,0.0,0.0,98,0.00,,,1.02,meteohub,2013-02-27 21:10:00,
2013-02-27 16:15:00,43.2,42.6,29.53,WSW,243,0.0,0.0,98,0.00,,,1.02,meteohub,2013-02-27 21:15:00,
2013-02-27 16:20:00,43.2,42.6,29.53,WSW,243,0.0,0.0,98,0.00,,,1.02,meteohub,2013-02-27 21:20:00,
2013-02-27 16:25:00,43.2,42.6,29.54,WSW,243,0.0,0.0,98,0.00,,,1.02,meteohub,2013-02-27 21:25:00,
2013-02-27 16:30:00,43.3,42.8,29.54,WSW,243,0.0,0.0,98,0.00,,,1.02,meteohub,2013-02-27 21:30:00,
2013-02-27 16:35:00,43.3,42.8,29.54,WSW,243,0.0,0.0,98,0.00,,,1.02,meteohub,2013-02-27 21:35:00,
2013-02-27 16:40:00,43.5,43.0,29.54,WSW,243,0.0,0.0,98,0.00,,,1.02,meteohub,2013-02-27 21:40:00,
2013-02-27 16:45:00,43.5,43.0,29.55,West,274,0.0,0.0,98,0.00,,,1.02,meteohub,2013-02-27 21:45:00,
2013-02-27 16:50:00,43.5,43.0,29.55,WSW,246,0.0,0.0,98,0.00,,,1.02,meteohub,2013-02-27 21:50:00,
2013-02-27 16:56:00,43.5,43.0,29.54,WSW,246,0.0,0.0,98,0.00,,,1.02,meteohub,2013-02-27 21:56:00,
2013-02-27 17:01:00,43.5,43.0,29.55,WSW,246,0.0,0.0,98,0.00,,,1.02,meteohub,2013-02-27 22:01:00,
2013-02-27 17:06:00,43.7,43.2,29.54,WSW,246,0.0,0.0,98,0.00,,,1.02,meteohub,2013-02-27 22:06:00,
2013-02-27 17:11:00,43.5,43.0,29.54,WSW,246,0.0,0.0,98,0.00,,,1.02,meteohub,2013-02-27 22:11:00,
2013-02-27 17:16:00,43.5,43.0,29.55,WSW,246,0.0,0.0,98,0.00,,,1.02,meteohub,2013-02-27 22:16:00,
2013-02-27 17:21:00,43.7,43.2,29.55,WSW,246,0.0,0.0,98,0.00,,,1.02,meteohub,2013-02-27 22:21:00,
2013-02-27 17:26:00,43.7,43.2,29.55,WSW,245,0.0,0.0,98,0.00,,,1.02,meteohub,2013-02-27 22:26:00,
2013-02-27 17:31:00,43.7,43.2,29.55,WSW,246,0.0,0.0,98,0.00,,,1.02,meteohub,2013-02-27 22:31:00,
2013-02-27 17:36:00,43.9,43.3,29.56,West,263,0.0,0.0,98,0.00,,,1.02,meteohub,2013-02-27 22:36:00,
2013-02-27 17:41:00,44.1,43.5,29.56,WSW,239,0.0,0.0,98,0.00,,,1.02,meteohub,2013-02-27 22:41:00,
2013-02-27 17:46:00,44.1,43.5,29.57,WSW,246,0.0,0.0,98,0.00,,,1.02,meteohub,2013-02-27 22:46:00,
2013-02-27 17:51:00,44.2,43.7,29.57,WSW,242,0.0,0.0,98,0.00,,,1.02,meteohub,2013-02-27 22:51:00,
2013-02-27 17:56:00,44.2,43.7,29.57,SSW,212,0.0,0.0,98,0.00,,,1.02,meteohub,2013-02-27 22:56:00,
2013-02-27 18:01:00,44.2,43.7,29.57,SSW,211,0.0,0.0,98,0.00,,,1.02,meteohub,2013-02-27 23:01:00,
2013-02-27 18:06:00,44.1,43.5,29.57,SSW,211,0.0,0.0,98,0.00,,,1.02,meteohub,2013-02-27 23:06:00,
2013-02-27 18:11:00,44.1,43.5,29.58,SSW,211,0.0,0.0,98,0.00,,,1.02,meteohub,2013-02-27 23:11:00,
2013-02-27 18:16:00,44.1,43.5,29.58,West,273,1.0,0.0,98,0.00,,,1.02,meteohub,2013-02-27 23:16:00,
2013-02-27 18:21:00,44.1,43.5,29.58,WSW,249,0.0,2.0,98,0.00,,,1.02,meteohub,2013-02-27 23:21:00,
2013-02-27 18:26:00,44.1,43.5,29.58,WSW,250,0.0,2.0,98,0.00,,,1.02,meteohub,2013-02-27 23:26:00,
2013-02-27 18:31:00,44.1,43.5,29.59,WSW,249,0.0,2.0,98,0.00,,,1.02,meteohub,2013-02-27 23:31:00,
2013-02-27 18:36:00,43.9,43.3,29.59,West,273,0.0,0.0,98,0.00,,,1.02,meteohub,2013-02-27 23:36:00,
2013-02-27 18:41:00,43.9,43.3,29.59,West,262,0.0,3.0,98,0.00,,,1.02,meteohub,2013-02-27 23:41:00,
2013-02-27 18:46:00,43.5,43.0,29.59,SW,228,0.0,3.0,98,0.00,,,1.02,meteohub,2013-02-27 23:46:00,
2013-02-27 18:51:00,43.2,42.4,29.60,WSW,255,0.0,1.0,97,0.00,,,1.02,meteohub,2013-02-27 23:51:00,
2013-02-27 18:56:00,42.8,42.1,29.60,WSW,256,0.0,0.0,97,0.00,,,1.02,meteohub,2013-02-27 23:56:00,
2013-02-27 19:01:00,42.4,41.7,29.60,SW,226,2.0,0.0,97,0.00,,,1.02,meteohub,2013-02-28 00:01:00,
2013-02-27 19:06:00,42.1,41.4,29.60,SW,228,0.0,2.0,97,0.00,,,1.02,meteohub,2013-02-28 00:06:00,
2013-02-27 19:11:00,41.5,40.8,29.60,SW,236,1.0,2.0,97,0.00,,,1.02,meteohub,2013-02-28 00:11:00,
2013-02-27 19:16:00,41.4,40.6,29.60,WSW,253,0.0,2.0,97,0.00,,,1.02,meteohub,2013-02-28 00:16:00,
2013-02-27 19:21:00,41.2,40.5,29.60,WSW,245,0.0,3.0,97,0.00,,,1.02,meteohub,2013-02-28 00:21:00,
2013-02-27 19:26:00,40.8,40.1,29.60,West,267,0.0,4.0,97,0.00,,,1.02,meteohub,2013-02-28 00:26:00,
2013-02-27 19:31:00,40.6,39.9,29.60,West,266,0.0,4.0,97,0.00,,,1.02,meteohub,2013-02-28 00:31:00,
2013-02-27 19:36:00,40.5,39.7,29.60,WSW,255,0.0,4.0,97,0.00,,,1.02,meteohub,2013-02-28 00:36:00,
2013-02-27 19:41:00,40.3,39.6,29.61,SW,236,0.0,2.0,97,0.00,,,1.02,meteohub,2013-02-28 00:41:00,
2013-02-27 19:46:00,39.9,39.2,29.61,WSW,255,0.0,2.0,97,0.00,,,1.02,meteohub,2013-02-28 00:46:00,
2013-02-27 19:51:00,39.7,39.0,29.61,WSW,256,0.0,0.0,97,0.00,,,1.02,meteohub,2013-02-28 00:51:00,
2013-02-27 19:56:00,39.6,38.8,29.61,WSW,253,0.0,0.0,97,0.00,,,1.02,meteohub,2013-02-28 00:56:00,
2013-02-27 20:01:00,39.4,38.7,29.61,WSW,253,0.0,0.0,97,0.00,,,1.02,meteohub,2013-02-28 01:01:00,
2013-02-27 20:06:00,39.2,38.5,29.61,WSW,253,0.0,0.0,97,0.00,,,1.02,meteohub,2013-02-28 01:06:00,
2013-02-27 20:11:00,39.0,38.3,29.61,WSW,253,0.0,0.0,97,0.00,,,1.02,meteohub,2013-02-28 01:11:00,
2013-02-27 20:16:00,38.8,38.1,29.62,WSW,253,0.0,0.0,97,0.00,,,1.02,meteohub,2013-02-28 01:16:00,
2013-02-27 20:21:00,38.7,37.9,29.62,WSW,253,0.0,0.0,97,0.00,,,1.02,meteohub,2013-02-28 01:21:00,
2013-02-27 20:26:00,38.5,37.8,29.62,WSW,253,0.0,0.0,97,0.00,,,1.02,meteohub,2013-02-28 01:26:00,
2013-02-27 20:31:00,38.1,37.4,29.62,WSW,253,0.0,0.0,97,0.00,,,1.02,meteohub,2013-02-28 01:31:00,
2013-02-27 20:36:00,37.9,37.2,29.63,WSW,253,0.0,0.0,97,0.00,,,1.02,meteohub,2013-02-28 01:36:00,
2013-02-27 20:41:00,37.8,37.0,29.63,East,95,0.0,0.0,97,0.00,,,1.02,meteohub,2013-02-28 01:41:00,
2013-02-27 20:46:00,37.8,37.0,29.63,East,94,0.0,0.0,97,0.00,,,1.02,meteohub,2013-02-28 01:46:00,
2013-02-27 20:51:00,37.6,36.9,29.63,East,95,0.0,0.0,97,0.00,,,1.02,meteohub,2013-02-28 01:51:00,
2013-02-27 20:56:00,37.6,36.9,29.63,East,94,0.0,0.0,97,0.00,,,1.02,meteohub,2013-02-28 01:56:00,
2013-02-27 21:01:00,37.6,36.9,29.63,East,95,0.0,0.0,97,0.00,,,1.02,meteohub,2013-02-28 02:01:00,
2013-02-27 21:07:00,37.6,36.9,29.63,SSE,161,0.0,0.0,97,0.00,,,1.02,meteohub,2013-02-28 02:07:00,
2013-02-27 21:12:00,37.8,37.0,29.63,SW,236,0.0,0.0,97,0.00,,,1.02,meteohub,2013-02-28 02:12:00,
2013-02-27 21:17:00,37.9,37.2,29.63,SW,236,0.0,0.0,97,0.00,,,1.02,meteohub,2013-02-28 02:17:00,
2013-02-27 21:21:00,37.8,37.0,29.63,SW,236,0.0,0.0,97,0.00,,,1.02,meteohub,2013-02-28 02:21:00,
2013-02-27 21:27:00,37.8,37.0,29.64,SE,126,0.0,0.0,97,0.00,,,1.02,meteohub,2013-02-28 02:27:00,
2013-02-27 21:32:00,37.8,37.0,29.64,SE,127,0.0,0.0,97,0.00,,,1.02,meteohub,2013-02-28 02:32:00,
2013-02-27 21:37:00,37.8,37.0,29.64,SE,125,0.0,0.0,97,0.00,,,1.02,meteohub,2013-02-28 02:37:00,
2013-02-27 21:42:00,37.8,37.0,29.64,SE,126,0.0,0.0,97,0.00,,,1.02,meteohub,2013-02-28 02:42:00,
2013-02-27 21:47:00,37.8,37.0,29.64,SE,125,0.0,0.0,97,0.00,,,1.02,meteohub,2013-02-28 02:47:00,
2013-02-27 21:52:00,37.6,36.9,29.64,SE,125,0.0,0.0,97,0.00,,,1.02,meteohub,2013-02-28 02:52:00,
2013-02-27 21:57:00,37.6,36.9,29.63,SE,126,0.0,0.0,97,0.00,,,1.02,meteohub,2013-02-28 02:57:00,
2013-02-27 22:02:00,37.4,36.7,29.63,SE,125,0.0,0.0,97,0.00,,,1.02,meteohub,2013-02-28 03:02:00,
2013-02-27 22:07:00,37.2,36.5,29.63,SE,125,0.0,0.0,97,0.00,,,1.02,meteohub,2013-02-28 03:07:00,
2013-02-27 22:12:00,37.0,36.3,29.63,SE,125,0.0,0.0,97,0.00,,,1.02,meteohub,2013-02-28 03:12:00,
2013-02-27 22:17:00,36.9,36.1,29.63,SE,125,0.0,0.0,97,0.00,,,1.02,meteohub,2013-02-28 03:17:00,
2013-02-27 22:22:00,36.7,36.0,29.63,SE,126,0.0,0.0,97,0.00,,,1.02,meteohub,2013-02-28 03:22:00,
2013-02-27 22:27:00,36.5,35.8,29.63,SE,129,0.0,0.0,97,0.00,,,1.02,meteohub,2013-02-28 03:27:00,
2013-02-27 22:32:00,36.3,35.6,29.62,SE,128,0.0,0.0,97,0.00,,,1.02,meteohub,2013-02-28 03:32:00,
2013-02-27 22:37:00,36.3,35.6,29.62,SE,129,0.0,0.0,97,0.00,,,1.02,meteohub,2013-02-28 03:37:00,
2013-02-27 22:42:00,36.1,35.4,29.62,SE,128,0.0,0.0,97,0.00,,,1.02,meteohub,2013-02-28 03:42:00,
2013-02-27 22:47:00,36.1,35.4,29.62,SE,128,0.0,0.0,97,0.00,,,1.02,meteohub,2013-02-28 03:47:00,
2013-02-27 22:52:00,36.1,35.4,29.62,SE,128,0.0,0.0,97,0.00,,,1.02,meteohub,2013-02-28 03:52:00,
2013-02-27 22:57:00,36.0,35.2,29.62,SE,127,0.0,0.0,97,0.00,,,1.02,meteohub,2013-02-28 03:57:00,
2013-02-27 23:02:00,36.0,35.2,29.62,SE,127,0.0,0.0,97,0.00,,,1.02,meteohub,2013-02-28 04:02:00,
2013-02-27 23:07:00,36.0,35.2,29.61,SE,128,0.0,0.0,97,0.00,,,1.02,meteohub,2013-02-28 04:07:00,
2013-02-27 23:12:00,36.1,35.4,29.61,SE,129,0.0,0.0,97,0.00,,,1.02,meteohub,2013-02-28 04:12:00,
2013-02-27 23:17:00,36.1,35.4,29.61,SE,128,0.0,0.0,97,0.00,,,1.02,meteohub,2013-02-28 04:17:00,
2013-02-27 23:22:00,36.0,35.2,29.61,SE,127,0.0,0.0,97,0.00,,,1.02,meteohub,2013-02-28 04:22:00,
2013-02-27 23:27:00,36.1,35.4,29.61,SE,127,0.0,0.0,97,0.00,,,1.02,meteohub,2013-02-28 04:27:00,
2013-02-27 23:32:00,36.5,36.0,29.60,SE,127,0.0,0.0,98,0.00,,,1.02,meteohub,2013-02-28 04:32:00,
2013-02-27 23:37:00,36.7,36.1,29.60,SE,127,0.0,0.0,98,0.00,,,1.02,meteohub,2013-02-28 04:37:00,
2013-02-27 23:42:00,36.5,35.8,29.59,SE,127,0.0,0.0,97,0.01,,,1.03,meteohub,2013-02-28 04:42:00,
2013-02-27 23:47:00,36.7,36.0,29.60,SE,128,0.0,0.0,97,0.01,,,1.03,meteohub,2013-02-28 04:47:00,
2013-02-27 23:52:00,37.0,36.5,29.60,SW,229,0.0,0.0,98,0.01,,,1.03,meteohub,2013-02-28 04:52:00,
2013-02-27 23:57:00,37.6,37.0,29.60,SW,229,0.0,0.0,98,0.01,,,1.03,meteohub,2013-02-28 04:57:00,